Time,TemperatureF,DewpointF,PressureIn,WindDirection,WindDirectionDegrees,WindSpeedMPH,WindSpeedGustMPH,Humidity,HourlyPrecipIn,Conditions,Clouds,dailyrainin,SoftwareType,DateUTC
2013-07-29 00:03:00,75.0,39.0,27.19,NNE,22,3.0,3.0,27,0.00,,,0.00,Rainwise IP-100,2013-07-29 07:03:00,
2013-07-29 00:09:00,75.2,39.0,27.19,NNE,22,0.0,3.0,27,0.00,,,0.00,Rainwise IP-100,2013-07-29 07:09:00,
2013-07-29 00:14:00,74.8,38.0,27.19,NNE,22,1.0,1.0,27,0.00,,,0.00,Rainwise IP-100,2013-07-29 07:14:00,
2013-07-29 00:19:00,74.0,39.0,27.19,NNE,22,0.0,1.0,28,0.00,,,0.00,Rainwise IP-100,2013-07-29 07:19:00,
2013-07-29 00:24:00,73.6,39.0,27.19,ENE,67,0.0,1.0,28,0.00,,,0.00,Rainwise IP-100,2013-07-29 07:24:00,
2013-07-29 00:29:00,73.2,39.0,27.19,ENE,67,0.0,0.0,29,0.00,,,0.00,Rainwise IP-100,2013-07-29 07:29:00,
2013-07-29 00:34:00,72.6,38.0,27.19,ENE,67,0.0,0.0,29,0.00,,,0.00,Rainwise IP-100,2013-07-29 07:34:00,
2013-07-29 00:39:00,72.5,38.0,27.20,ENE,67,0.0,0.0,29,0.00,,,0.00,Rainwise IP-100,2013-07-29 07:39:00,
2013-07-29 00:44:00,72.5,38.0,27.19,ENE,67,0.0,0.0,29,0.00,,,0.00,Rainwise IP-100,2013-07-29 07:44:00,
2013-07-29 00:49:00,72.9,39.0,27.20,WNW,292,1.0,3.0,29,0.00,,,0.00,Rainwise IP-100,2013-07-29 07:49:00,
2013-07-29 00:54:00,73.6,39.0,27.19,East,90,0.0,2.0,28,0.00,,,0.00,Rainwise IP-100,2013-07-29 07:54:00,
2013-07-29 00:59:00,73.4,38.0,27.19,SSW,202,3.0,3.0,28,0.00,,,0.00,Rainwise IP-100,2013-07-29 07:59:00,
2013-07-29 01:04:00,72.7,38.0,27.19,SSW,202,2.0,3.0,29,0.00,,,0.00,Rainwise IP-100,2013-07-29 08:04:00,
2013-07-29 01:09:00,72.9,39.0,27.20,SSW,202,1.0,2.0,29,0.00,,,0.00,Rainwise IP-100,2013-07-29 08:09:00,
2013-07-29 01:14:00,73.3,39.0,27.19,SSW,202,2.0,2.0,29,0.00,,,0.00,Rainwise IP-100,2013-07-29 08:14:00,
2013-07-29 01:20:00,73.1,39.0,27.20,SSW,202,2.0,2.0,29,0.00,,,0.00,Rainwise IP-100,2013-07-29 08:20:00,
2013-07-29 01:25:00,72.9,39.0,27.20,SW,225,2.0,2.0,29,0.00,,,0.00,Rainwise IP-100,2013-07-29 08:25:00,
2013-07-29 01:30:00,73.1,39.0,27.19,SW,225,0.0,2.0,29,0.00,,,0.00,Rainwise IP-100,2013-07-29 08:30:00,
2013-07-29 01:35:00,73.5,39.0,27.19,SW,225,1.0,1.0,29,0.00,,,0.00,Rainwise IP-100,2013-07-29 08:35:00,
2013-07-29 01:40:00,73.4,39.0,27.19,SW,225,2.0,2.0,29,0.00,,,0.00,Rainwise IP-100,2013-07-29 08:40:00,
2013-07-29 01:45:00,73.3,39.0,27.19,SW,225,1.0,2.0,29,0.00,,,0.00,Rainwise IP-100,2013-07-29 08:45:00,
2013-07-29 01:50:00,73.4,39.0,27.19,SW,225,1.0,1.0,29,0.00,,,0.00,Rainwise IP-100,2013-07-29 08:50:00,
2013-07-29 01:55:00,73.4,39.0,27.20,SW,225,0.0,2.0,29,0.00,,,0.00,Rainwise IP-100,2013-07-29 08:55:00,
2013-07-29 02:00:00,73.3,39.0,27.19,SW,225,0.0,1.0,29,0.00,,,0.00,Rainwise IP-100,2013-07-29 09:00:00,
2013-07-29 02:05:00,72.9,39.0,27.19,SW,225,0.0,1.0,29,0.00,,,0.00,Rainwise IP-100,2013-07-29 09:05:00,
2013-07-29 02:10:00,72.6,39.0,27.19,SW,225,0.0,0.0,30,0.00,,,0.00,Rainwise IP-100,2013-07-29 09:10:00,
2013-07-29 02:15:00,72.3,39.0,27.19,SW,225,0.0,0.0,30,0.00,,,0.00,Rainwise IP-100,2013-07-29 09:15:00,
2013-07-29 02:20:00,71.8,38.0,27.19,SW,225,0.0,0.0,30,0.00,,,0.00,Rainwise IP-100,2013-07-29 09:20:00,
2013-07-29 02:25:00,71.5,39.0,27.20,SW,225,0.0,0.0,31,0.00,,,0.00,Rainwise IP-100,2013-07-29 09:25:00,
2013-07-29 02:30:00,71.5,39.0,27.20,SW,225,0.0,0.0,31,0.00,,,0.00,Rainwise IP-100,2013-07-29 09:30:00,
2013-07-29 02:36:00,71.2,39.0,27.19,SW,225,0.0,0.0,31,0.00,,,0.00,Rainwise IP-100,2013-07-29 09:36:00,
2013-07-29 02:41:00,71.0,39.0,27.19,SW,225,0.0,0.0,32,0.00,,,0.00,Rainwise IP-100,2013-07-29 09:41:00,
2013-07-29 02:46:00,71.4,39.0,27.20,SW,225,1.0,1.0,31,0.00,,,0.00,Rainwise IP-100,2013-07-29 09:46:00,
2013-07-29 02:51:00,72.1,39.0,27.20,SW,225,2.0,2.0,31,0.00,,,0.00,Rainwise IP-100,2013-07-29 09:51:00,
2013-07-29 02:56:00,72.8,39.0,27.20,SW,225,2.0,2.0,30,0.00,,,0.00,Rainwise IP-100,2013-07-29 09:56:00,
2013-07-29 03:01:00,73.4,40.0,27.20,SW,225,1.0,2.0,30,0.00,,,0.00,Rainwise IP-100,2013-07-29 10:01:00,
2013-07-29 03:06:00,73.4,40.0,27.20,SW,225,0.0,1.0,30,0.00,,,0.00,Rainwise IP-100,2013-07-29 10:06:00,
2013-07-29 03:11:00,73.3,40.0,27.20,SW,225,0.0,0.0,30,0.00,,,0.00,Rainwise IP-100,2013-07-29 10:11:00,
2013-07-29 03:16:00,72.8,39.0,27.19,SW,225,0.0,0.0,30,0.00,,,0.00,Rainwise IP-100,2013-07-29 10:16:00,
2013-07-29 03:21:00,72.1,39.0,27.20,SW,225,0.0,1.0,30,0.00,,,0.00,Rainwise IP-100,2013-07-29 10:21:00,
2013-07-29 03:26:00,71.6,39.0,27.19,WSW,247,0.0,0.0,31,0.00,,,0.00,Rainwise IP-100,2013-07-29 10:26:00,
2013-07-29 03:31:00,71.0,39.0,27.20,WNW,292,0.0,1.0,32,0.00,,,0.00,Rainwise IP-100,2013-07-29 10:31:00,
2013-07-29 03:36:00,70.1,39.0,27.20,WSW,247,0.0,1.0,33,0.00,,,0.00,Rainwise IP-100,2013-07-29 10:36:00,
2013-07-29 03:41:00,69.4,39.0,27.20,WSW,247,1.0,1.0,34,0.00,,,0.00,Rainwise IP-100,2013-07-29 10:41:00,
2013-07-29 03:46:00,69.3,39.0,27.20,WSW,247,0.0,1.0,34,0.00,,,0.00,Rainwise IP-100,2013-07-29 10:46:00,
2013-07-29 03:52:00,69.8,39.0,27.20,WSW,247,0.0,1.0,33,0.00,,,0.00,Rainwise IP-100,2013-07-29 10:52:00,
2013-07-29 03:57:00,70.4,39.0,27.20,WSW,247,1.0,1.0,32,0.00,,,0.00,Rainwise IP-100,2013-07-29 10:57:00,
2013-07-29 04:02:00,70.9,39.0,27.20,WSW,247,0.0,2.0,32,0.00,,,0.00,Rainwise IP-100,2013-07-29 11:02:00,
2013-07-29 04:07:00,71.6,39.0,27.20,WSW,247,0.0,1.0,31,0.00,,,0.00,Rainwise IP-100,2013-07-29 11:07:00,
2013-07-29 04:12:00,72.1,39.0,27.20,WSW,247,1.0,1.0,30,0.00,,,0.00,Rainwise IP-100,2013-07-29 11:12:00,
2013-07-29 04:17:00,72.2,39.0,27.20,WSW,247,2.0,2.0,30,0.00,,,0.00,Rainwise IP-100,2013-07-29 11:17:00,
2013-07-29 04:22:00,72.4,39.0,27.20,WSW,247,2.0,2.0,30,0.00,,,0.00,Rainwise IP-100,2013-07-29 11:22:00,
2013-07-29 04:27:00,72.1,39.0,27.20,WSW,247,1.0,2.0,30,0.00,,,0.00,Rainwise IP-100,2013-07-29 11:27:00,
2013-07-29 04:32:00,71.9,39.0,27.20,WSW,247,2.0,2.0,30,0.00,,,0.00,Rainwise IP-100,2013-07-29 11:32:00,
2013-07-29 04:37:00,72.1,39.0,27.20,WSW,247,0.0,2.0,30,0.00,,,0.00,Rainwise IP-100,2013-07-29 11:37:00,
2013-07-29 04:42:00,72.2,39.0,27.20,WSW,247,0.0,0.0,30,0.00,,,0.00,Rainwise IP-100,2013-07-29 11:42:00,
2013-07-29 04:47:00,71.6,38.0,27.21,WSW,247,0.0,0.0,30,0.00,,,0.00,Rainwise IP-100,2013-07-29 11:47:00,
2013-07-29 04:52:00,71.1,38.0,27.21,WSW,247,0.0,1.0,30,0.00,,,0.00,Rainwise IP-100,2013-07-29 11:52:00,
2013-07-29 04:57:00,71.1,39.0,27.20,WSW,247,0.0,0.0,31,0.00,,,0.00,Rainwise IP-100,2013-07-29 11:57:00,
2013-07-29 05:02:00,71.2,39.0,27.21,WSW,247,0.0,2.0,31,0.00,,,0.00,Rainwise IP-100,2013-07-29 12:02:00,
2013-07-29 05:07:00,71.0,39.0,27.21,WSW,247,0.0,0.0,31,0.00,,,0.00,Rainwise IP-100,2013-07-29 12:07:00,
2013-07-29 05:12:00,71.0,39.0,27.21,WSW,247,0.0,0.0,31,0.00,,,0.00,Rainwise IP-100,2013-07-29 12:12:00,
2013-07-29 05:17:00,70.6,38.0,27.21,WSW,247,0.0,0.0,31,0.00,,,0.00,Rainwise IP-100,2013-07-29 12:17:00,
2013-07-29 05:22:00,70.2,39.0,27.21,WSW,247,2.0,2.0,32,0.00,,,0.00,Rainwise IP-100,2013-07-29 12:22:00,
2013-07-29 05:27:00,69.9,39.0,27.21,WSW,247,0.0,1.0,32,0.00,,,0.00,Rainwise IP-100,2013-07-29 12:27:00,
2013-07-29 05:32:00,70.1,39.0,27.22,WSW,247,0.0,0.0,32,0.00,,,0.00,Rainwise IP-100,2013-07-29 12:32:00,
2013-07-29 05:37:00,70.7,38.0,27.22,WSW,247,0.0,0.0,31,0.00,,,0.00,Rainwise IP-100,2013-07-29 12:37:00,
2013-07-29 05:42:00,71.0,39.0,27.22,WSW,247,0.0,0.0,31,0.00,,,0.00,Rainwise IP-100,2013-07-29 12:42:00,
2013-07-29 05:48:00,70.8,38.0,27.22,WSW,247,0.0,0.0,31,0.00,,,0.00,Rainwise IP-100,2013-07-29 12:48:00,
2013-07-29 05:53:00,70.6,38.0,27.22,WSW,247,0.0,0.0,31,0.00,,,0.00,Rainwise IP-100,2013-07-29 12:53:00,
2013-07-29 05:58:00,70.7,38.0,27.22,WSW,247,0.0,0.0,31,0.00,,,0.00,Rainwise IP-100,2013-07-29 12:58:00,
2013-07-29 06:03:00,70.7,38.0,27.23,WSW,247,1.0,0.0,31,0.00,,,0.00,Rainwise IP-100,2013-07-29 13:03:00,
2013-07-29 06:08:00,70.5,38.0,27.22,WSW,247,2.0,2.0,31,0.00,,,0.00,Rainwise IP-100,2013-07-29 13:08:00,
2013-07-29 06:13:00,70.3,39.0,27.23,WSW,247,3.0,3.0,32,0.00,,,0.00,Rainwise IP-100,2013-07-29 13:13:00,
2013-07-29 06:18:00,70.7,38.0,27.23,West,270,1.0,3.0,31,0.00,,,0.00,Rainwise IP-100,2013-07-29 13:18:00,
2013-07-29 06:23:00,71.6,38.0,27.23,West,270,0.0,1.0,30,0.00,,,0.00,Rainwise IP-100,2013-07-29 13:23:00,
2013-07-29 06:28:00,71.8,38.0,27.23,West,270,0.0,1.0,30,0.00,,,0.00,Rainwise IP-100,2013-07-29 13:28:00,
2013-07-29 06:33:00,71.5,39.0,27.23,West,270,1.0,1.0,31,0.00,,,0.00,Rainwise IP-100,2013-07-29 13:33:00,
2013-07-29 06:38:00,71.7,38.0,27.23,WSW,247,1.0,2.0,30,0.00,,,0.00,Rainwise IP-100,2013-07-29 13:38:00,
2013-07-29 06:43:00,72.2,39.0,27.24,WSW,247,1.0,1.0,30,0.00,,,0.00,Rainwise IP-100,2013-07-29 13:43:00,
2013-07-29 06:48:00,72.7,38.0,27.24,SSW,202,1.0,2.0,29,0.00,,,0.00,Rainwise IP-100,2013-07-29 13:48:00,
2013-07-29 06:53:00,73.1,38.0,27.23,SSW,202,0.0,1.0,28,0.00,,,0.00,Rainwise IP-100,2013-07-29 13:53:00,
2013-07-29 06:58:00,73.7,39.0,27.24,SSW,202,0.0,1.0,28,0.00,,,0.00,Rainwise IP-100,2013-07-29 13:58:00,
2013-07-29 07:04:00,74.3,38.0,27.24,SSW,202,0.0,1.0,27,0.00,,,0.00,Rainwise IP-100,2013-07-29 14:04:00,
2013-07-29 07:09:00,75.3,39.0,27.24,SSW,202,0.0,1.0,27,0.00,,,0.00,Rainwise IP-100,2013-07-29 14:09:00,
2013-07-29 07:14:00,76.0,39.0,27.24,SSW,202,0.0,1.0,27,0.00,,,0.00,Rainwise IP-100,2013-07-29 14:14:00,
2013-07-29 07:19:00,76.4,39.0,27.24,SSW,202,0.0,1.0,26,0.00,,,0.00,Rainwise IP-100,2013-07-29 14:19:00,
2013-07-29 07:24:00,76.8,40.0,27.24,SE,135,1.0,2.0,27,0.00,,,0.00,Rainwise IP-100,2013-07-29 14:24:00,
2013-07-29 07:29:00,76.9,40.0,27.24,SE,135,0.0,2.0,27,0.00,,,0.00,Rainwise IP-100,2013-07-29 14:29:00,
2013-07-29 07:34:00,76.9,39.0,27.24,SE,135,0.0,2.0,26,0.00,,,0.00,Rainwise IP-100,2013-07-29 14:34:00,
2013-07-29 07:39:00,77.7,40.0,27.25,SE,135,0.0,0.0,26,0.00,,,0.00,Rainwise IP-100,2013-07-29 14:39:00,
2013-07-29 07:44:00,79.0,40.0,27.24,ESE,112,0.0,0.0,25,0.00,,,0.00,Rainwise IP-100,2013-07-29 14:44:00,
2013-07-29 07:49:00,79.7,39.0,27.24,ESE,112,0.0,0.0,24,0.00,,,0.00,Rainwise IP-100,2013-07-29 14:49:00,
2013-07-29 07:54:00,80.0,40.0,27.25,ESE,112,0.0,1.0,24,0.00,,,0.00,Rainwise IP-100,2013-07-29 14:54:00,
2013-07-29 07:59:00,80.9,40.0,27.25,ESE,112,1.0,1.0,23,0.00,,,0.00,Rainwise IP-100,2013-07-29 14:59:00,
2013-07-29 08:04:00,82.0,39.0,27.25,ESE,112,0.0,1.0,22,0.00,,,0.00,Rainwise IP-100,2013-07-29 15:04:00,
2013-07-29 08:09:00,83.0,40.0,27.25,ESE,112,0.0,0.0,22,0.00,,,0.00,Rainwise IP-100,2013-07-29 15:09:00,
2013-07-29 08:14:00,84.4,40.0,27.25,ESE,112,0.0,0.0,21,0.00,,,0.00,Rainwise IP-100,2013-07-29 15:14:00,
2013-07-29 08:20:00,85.2,39.0,27.25,ESE,112,2.0,2.0,20,0.00,,,0.00,Rainwise IP-100,2013-07-29 15:20:00,
2013-07-29 08:25:00,85.3,38.0,27.25,ESE,112,3.0,3.0,19,0.00,,,0.00,Rainwise IP-100,2013-07-29 15:25:00,
2013-07-29 08:30:00,85.0,37.0,27.25,ESE,112,0.0,3.0,18,0.00,,,0.00,Rainwise IP-100,2013-07-29 15:30:00,
2013-07-29 08:35:00,84.8,35.0,27.25,ENE,67,4.0,4.0,17,0.00,,,0.00,Rainwise IP-100,2013-07-29 15:35:00,
2013-07-29 08:40:00,84.8,33.0,27.25,NE,45,0.0,4.0,16,0.00,,,0.00,Rainwise IP-100,2013-07-29 15:40:00,
2013-07-29 08:45:00,85.2,36.0,27.25,SSE,157,3.0,3.0,17,0.00,,,0.00,Rainwise IP-100,2013-07-29 15:45:00,
2013-07-29 08:50:00,86.7,35.0,27.26,SSE,157,2.0,4.0,16,0.00,,,0.00,Rainwise IP-100,2013-07-29 15:50:00,
2013-07-29 08:55:00,86.8,35.0,27.26,South,180,5.0,6.0,16,0.00,,,0.00,Rainwise IP-100,2013-07-29 15:55:00,
2013-07-29 09:00:00,86.7,33.0,27.26,SSW,202,3.0,5.0,15,0.00,,,0.00,Rainwise IP-100,2013-07-29 16:00:00,
2013-07-29 09:05:00,87.0,33.0,27.26,SSW,202,5.0,7.0,15,0.00,,,0.00,Rainwise IP-100,2013-07-29 16:05:00,
2013-07-29 09:10:00,87.1,33.0,27.26,SSW,202,6.0,6.0,15,0.00,,,0.00,Rainwise IP-100,2013-07-29 16:10:00,
2013-07-29 09:15:00,86.9,32.0,27.26,SSE,157,2.0,7.0,14,0.00,,,0.00,Rainwise IP-100,2013-07-29 16:15:00,
2013-07-29 09:20:00,87.0,32.0,27.26,South,180,4.0,6.0,14,0.00,,,0.00,Rainwise IP-100,2013-07-29 16:20:00,
2013-07-29 09:25:00,87.5,32.0,27.26,SSW,202,6.0,7.0,14,0.00,,,0.00,Rainwise IP-100,2013-07-29 16:25:00,
2013-07-29 09:30:00,87.6,31.0,27.27,SSE,157,3.0,7.0,13,0.00,,,0.00,Rainwise IP-100,2013-07-29 16:30:00,
2013-07-29 09:36:00,87.6,31.0,27.26,SSE,157,5.0,7.0,13,0.00,,,0.00,Rainwise IP-100,2013-07-29 16:36:00,
2013-07-29 09:41:00,88.1,29.0,27.26,SSE,157,6.0,9.0,12,0.00,,,0.00,Rainwise IP-100,2013-07-29 16:41:00,
2013-07-29 09:46:00,88.4,29.0,27.27,SSW,202,6.0,7.0,12,0.00,,,0.00,Rainwise IP-100,2013-07-29 16:46:00,
2013-07-29 09:51:00,88.5,29.0,27.26,SSE,157,3.0,8.0,12,0.00,,,0.00,Rainwise IP-100,2013-07-29 16:51:00,
2013-07-29 09:56:00,88.6,29.0,27.26,SSW,202,6.0,7.0,12,0.00,,,0.00,Rainwise IP-100,2013-07-29 16:56:00,
2013-07-29 10:01:00,88.7,28.0,27.27,South,180,7.0,0.0,11,0.00,,,0.00,Rainwise IP-100,2013-07-29 17:01:00,
2013-07-29 10:06:00,88.9,28.0,27.27,SSE,157,6.0,8.0,11,0.00,,,0.00,Rainwise IP-100,2013-07-29 17:06:00,
2013-07-29 10:11:00,89.1,28.0,27.27,SW,225,7.0,7.0,11,0.00,,,0.00,Rainwise IP-100,2013-07-29 17:11:00,
2013-07-29 10:16:00,89.2,28.0,27.26,SSW,202,5.0,9.0,11,0.00,,,0.00,Rainwise IP-100,2013-07-29 17:16:00,
2013-07-29 10:21:00,89.3,28.0,27.27,SSE,157,9.0,9.0,11,0.00,,,0.00,Rainwise IP-100,2013-07-29 17:21:00,
2013-07-29 10:26:00,89.6,26.0,27.27,SSW,202,8.0,8.0,10,0.00,,,0.00,Rainwise IP-100,2013-07-29 17:26:00,
2013-07-29 10:31:00,89.7,26.0,27.27,SSE,157,0.0,2.0,10,0.00,,,0.00,Rainwise IP-100,2013-07-29 17:31:00,
2013-07-29 10:36:00,89.8,26.0,27.27,SSW,202,5.0,0.0,10,0.00,,,0.00,Rainwise IP-100,2013-07-29 17:36:00,
2013-07-29 10:41:00,90.1,26.0,27.27,SSE,157,9.0,9.0,10,0.00,,,0.00,Rainwise IP-100,2013-07-29 17:41:00,
2013-07-29 10:46:00,90.5,28.0,27.28,SSW,202,7.0,7.0,10,0.00,,,0.00,Rainwise IP-100,2013-07-29 17:46:00,
2013-07-29 10:52:00,90.7,28.0,27.27,SSW,202,4.0,0.0,10,0.00,,,0.00,Rainwise IP-100,2013-07-29 17:52:00,
2013-07-29 10:57:00,90.5,28.0,27.27,ESE,112,1.0,9.0,10,0.00,,,0.00,Rainwise IP-100,2013-07-29 17:57:00,
2013-07-29 11:02:00,90.3,26.0,27.27,SSW,202,9.0,9.0,10,0.00,,,0.00,Rainwise IP-100,2013-07-29 18:02:00,
2013-07-29 11:07:00,91.2,28.0,27.27,SSE,157,9.0,9.0,10,0.00,,,0.00,Rainwise IP-100,2013-07-29 18:07:00,
2013-07-29 11:12:00,92.2,28.0,27.27,SSW,202,9.0,9.0,10,0.00,,,0.00,Rainwise IP-100,2013-07-29 18:12:00,
2013-07-29 11:17:00,91.9,28.0,27.27,SSW,202,0.0,8.0,10,0.00,,,0.00,Rainwise IP-100,2013-07-29 18:17:00,
2013-07-29 11:22:00,91.7,28.0,27.27,SSE,157,6.0,6.0,10,0.00,,,0.00,Rainwise IP-100,2013-07-29 18:22:00,
2013-07-29 11:27:00,91.9,26.0,27.27,SSE,157,7.0,7.0,9,0.00,,,0.00,Rainwise IP-100,2013-07-29 18:27:00,
2013-07-29 11:32:00,92.3,26.0,27.27,SSW,202,8.0,8.0,9,0.00,,,0.00,Rainwise IP-100,2013-07-29 18:32:00,
2013-07-29 11:37:00,92.7,26.0,27.27,SSE,157,7.0,7.0,9,0.00,,,0.00,Rainwise IP-100,2013-07-29 18:37:00,
2013-07-29 11:42:00,92.6,26.0,27.27,South,180,4.0,5.0,9,0.00,,,0.00,Rainwise IP-100,2013-07-29 18:42:00,
2013-07-29 11:47:00,92.3,26.0,27.27,SSE,157,9.0,9.0,9,0.00,,,0.00,Rainwise IP-100,2013-07-29 18:47:00,
2013-07-29 11:52:00,92.1,26.0,27.27,SSE,157,9.0,9.0,9,0.00,,,0.00,Rainwise IP-100,2013-07-29 18:52:00,
2013-07-29 11:57:00,91.8,26.0,27.27,SSE,157,8.0,8.0,9,0.00,,,0.00,Rainwise IP-100,2013-07-29 18:57:00,
2013-07-29 12:02:00,91.7,26.0,27.28,SSE,157,7.0,8.0,9,0.00,,,0.00,Rainwise IP-100,2013-07-29 19:02:00,
2013-07-29 12:08:00,92.0,23.0,27.27,SSW,202,0.0,4.0,8,0.00,,,0.00,Rainwise IP-100,2013-07-29 19:08:00,
2013-07-29 12:13:00,92.3,23.0,27.27,SSE,157,0.0,7.0,8,0.00,,,0.00,Rainwise IP-100,2013-07-29 19:13:00,
2013-07-29 12:18:00,92.4,23.0,27.28,SSE,157,0.0,7.0,8,0.00,,,0.00,Rainwise IP-100,2013-07-29 19:18:00,
2013-07-29 12:23:00,92.3,21.0,27.28,SSE,157,0.0,0.0,7,0.00,,,0.00,Rainwise IP-100,2013-07-29 19:23:00,
2013-07-29 12:28:00,92.3,21.0,27.28,SSE,157,9.0,9.0,7,0.00,,,0.00,Rainwise IP-100,2013-07-29 19:28:00,
2013-07-29 12:33:00,92.5,23.0,27.28,SSW,202,0.0,8.0,8,0.00,,,0.00,Rainwise IP-100,2013-07-29 19:33:00,
2013-07-29 12:38:00,92.6,23.0,27.29,SW,225,4.0,8.0,8,0.00,,,0.00,Rainwise IP-100,2013-07-29 19:38:00,
2013-07-29 12:43:00,92.3,26.0,27.29,SSE,157,0.0,9.0,9,0.00,,,0.00,Rainwise IP-100,2013-07-29 19:43:00,
2013-07-29 12:48:00,92.4,26.0,27.28,SSE,157,0.0,8.0,9,0.00,,,0.00,Rainwise IP-100,2013-07-29 19:48:00,
2013-07-29 12:53:00,92.5,26.0,27.28,SSE,157,0.0,0.0,9,0.00,,,0.00,Rainwise IP-100,2013-07-29 19:53:00,
2013-07-29 12:58:00,92.5,23.0,27.28,SSE,157,0.0,9.0,8,0.00,,,0.00,Rainwise IP-100,2013-07-29 19:58:00,
2013-07-29 13:03:00,92.4,23.0,27.28,SSW,202,0.0,9.0,8,0.00,,,0.00,Rainwise IP-100,2013-07-29 20:03:00,
2013-07-29 13:08:00,92.2,26.0,27.28,SSW,202,0.0,8.0,9,0.00,,,0.00,Rainwise IP-100,2013-07-29 20:08:00,
2013-07-29 13:13:00,91.9,23.0,27.28,SSW,202,8.0,0.0,8,0.00,,,0.00,Rainwise IP-100,2013-07-29 20:13:00,
2013-07-29 13:18:00,92.0,23.0,27.28,SW,225,5.0,7.0,8,0.00,,,0.00,Rainwise IP-100,2013-07-29 20:18:00,
2013-07-29 13:24:00,92.5,23.0,27.28,South,180,0.0,7.0,8,0.00,,,0.00,Rainwise IP-100,2013-07-29 20:24:00,
2013-07-29 13:29:00,92.8,23.0,27.28,SSE,157,0.0,7.0,8,0.00,,,0.00,Rainwise IP-100,2013-07-29 20:29:00,
2013-07-29 13:34:00,92.9,23.0,27.28,SSW,202,0.0,7.0,8,0.00,,,0.00,Rainwise IP-100,2013-07-29 20:34:00,
2013-07-29 13:39:00,93.1,23.0,27.28,SSW,202,0.0,7.0,8,0.00,,,0.00,Rainwise IP-100,2013-07-29 20:39:00,
2013-07-29 13:44:00,93.5,24.0,27.28,SSW,202,0.0,7.0,8,0.00,,,0.00,Rainwise IP-100,2013-07-29 20:44:00,
2013-07-29 13:49:00,93.6,21.0,27.28,SSE,157,0.0,9.0,7,0.00,,,0.00,Rainwise IP-100,2013-07-29 20:49:00,
2013-07-29 13:54:00,93.5,21.0,27.27,SSW,202,0.0,5.0,7,0.00,,,0.00,Rainwise IP-100,2013-07-29 20:54:00,
2013-07-29 13:59:00,93.6,24.0,27.28,SSW,202,0.0,6.0,8,0.00,,,0.00,Rainwise IP-100,2013-07-29 20:59:00,
2013-07-29 14:04:00,93.4,21.0,27.27,SSW,202,0.0,9.0,7,0.00,,,0.00,Rainwise IP-100,2013-07-29 21:04:00,
2013-07-29 14:09:00,93.6,21.0,27.27,SSE,157,0.0,5.0,7,0.00,,,0.00,Rainwise IP-100,2013-07-29 21:09:00,
2013-07-29 14:14:00,94.1,21.0,27.27,South,180,0.0,8.0,7,0.00,,,0.00,Rainwise IP-100,2013-07-29 21:14:00,
2013-07-29 14:19:00,94.2,24.0,27.27,SSW,202,0.0,8.0,8,0.00,,,0.00,Rainwise IP-100,2013-07-29 21:19:00,
2013-07-29 14:24:00,93.8,24.0,27.28,South,180,0.0,0.0,8,0.00,,,0.00,Rainwise IP-100,2013-07-29 21:24:00,
2013-07-29 14:29:00,93.7,24.0,27.27,SSW,202,0.0,8.0,8,0.00,,,0.00,Rainwise IP-100,2013-07-29 21:29:00,
2013-07-29 14:34:00,93.9,26.0,27.27,SSW,202,9.0,9.0,9,0.00,,,0.00,Rainwise IP-100,2013-07-29 21:34:00,
2013-07-29 14:40:00,94.0,26.0,27.27,SSW,202,0.0,6.0,9,0.00,,,0.00,Rainwise IP-100,2013-07-29 21:40:00,
2013-07-29 14:45:00,93.7,29.0,27.26,SSW,202,7.0,8.0,10,0.00,,,0.00,Rainwise IP-100,2013-07-29 21:45:00,
2013-07-29 14:50:00,93.6,29.0,27.27,SSW,202,0.0,7.0,10,0.00,,,0.00,Rainwise IP-100,2013-07-29 21:50:00,
2013-07-29 14:55:00,93.7,29.0,27.27,SSE,157,0.0,8.0,10,0.00,,,0.00,Rainwise IP-100,2013-07-29 21:55:00,
2013-07-29 15:00:00,93.8,29.0,27.27,SSW,202,0.0,7.0,10,0.00,,,0.00,Rainwise IP-100,2013-07-29 22:00:00,
2013-07-29 15:05:00,93.9,29.0,27.27,SSW,202,0.0,4.0,10,0.00,,,0.00,Rainwise IP-100,2013-07-29 22:05:00,
2013-07-29 15:10:00,94.1,32.0,27.26,SSW,202,8.0,8.0,11,0.00,,,0.00,Rainwise IP-100,2013-07-29 22:10:00,
2013-07-29 15:15:00,94.5,32.0,27.26,SSW,202,0.0,6.0,11,0.00,,,0.00,Rainwise IP-100,2013-07-29 22:15:00,
2013-07-29 15:20:00,94.6,32.0,27.26,WSW,247,0.0,4.0,11,0.00,,,0.00,Rainwise IP-100,2013-07-29 22:20:00,
2013-07-29 15:25:00,94.5,32.0,27.26,WSW,247,8.0,8.0,11,0.00,,,0.00,Rainwise IP-100,2013-07-29 22:25:00,
2013-07-29 15:30:00,94.3,33.0,27.26,SSW,202,0.0,8.0,12,0.00,,,0.00,Rainwise IP-100,2013-07-29 22:30:00,
2013-07-29 15:35:00,94.2,33.0,27.26,SSW,202,9.0,9.0,12,0.00,,,0.00,Rainwise IP-100,2013-07-29 22:35:00,
2013-07-29 15:40:00,94.1,33.0,27.26,South,180,0.0,6.0,12,0.00,,,0.00,Rainwise IP-100,2013-07-29 22:40:00,
2013-07-29 15:45:00,94.1,36.0,27.26,SSW,202,0.0,5.0,13,0.00,,,0.00,Rainwise IP-100,2013-07-29 22:45:00,
2013-07-29 15:50:00,94.2,33.0,27.26,WSW,247,7.0,7.0,12,0.00,,,0.00,Rainwise IP-100,2013-07-29 22:50:00,
2013-07-29 15:56:00,94.1,36.0,27.26,WSW,247,0.0,5.0,13,0.00,,,0.00,Rainwise IP-100,2013-07-29 22:56:00,
2013-07-29 16:01:00,94.2,36.0,27.25,SSW,202,0.0,5.0,13,0.00,,,0.00,Rainwise IP-100,2013-07-29 23:01:00,
2013-07-29 16:06:00,94.2,38.0,27.25,SSW,202,0.0,5.0,14,0.00,,,0.00,Rainwise IP-100,2013-07-29 23:06:00,
2013-07-29 16:11:00,93.9,38.0,27.25,SSW,202,9.0,9.0,14,0.00,,,0.00,Rainwise IP-100,2013-07-29 23:11:00,
2013-07-29 16:16:00,93.9,38.0,27.26,South,180,0.0,5.0,14,0.00,,,0.00,Rainwise IP-100,2013-07-29 23:16:00,
2013-07-29 16:21:00,94.1,38.0,27.25,South,180,9.0,9.0,14,0.00,,,0.00,Rainwise IP-100,2013-07-29 23:21:00,
2013-07-29 16:26:00,94.1,38.0,27.25,SSW,202,0.0,9.0,14,0.00,,,0.00,Rainwise IP-100,2013-07-29 23:26:00,
2013-07-29 16:31:00,93.9,38.0,27.25,SSW,202,0.0,8.0,14,0.00,,,0.00,Rainwise IP-100,2013-07-29 23:31:00,
2013-07-29 16:36:00,93.9,36.0,27.24,SSW,202,0.0,9.0,13,0.00,,,0.00,Rainwise IP-100,2013-07-29 23:36:00,
2013-07-29 16:41:00,93.8,36.0,27.24,SSW,202,0.0,8.0,13,0.00,,,0.00,Rainwise IP-100,2013-07-29 23:41:00,
2013-07-29 16:46:00,93.6,37.0,27.25,SSW,202,0.0,2.0,14,0.00,,,0.00,Rainwise IP-100,2013-07-29 23:46:00,
2013-07-29 16:51:00,93.4,37.0,27.25,SSW,202,0.0,9.0,14,0.00,,,0.00,Rainwise IP-100,2013-07-29 23:51:00,
2013-07-29 16:56:00,93.4,37.0,27.26,SSW,202,0.0,1.0,14,0.00,,,0.00,Rainwise IP-100,2013-07-29 23:56:00,
2013-07-29 17:01:00,93.0,37.0,27.25,SSW,202,0.0,2.0,14,0.00,,,0.00,Rainwise IP-100,2013-07-30 00:01:00,
2013-07-29 17:06:00,92.8,37.0,27.25,South,180,0.0,0.0,14,0.00,,,0.00,Rainwise IP-100,2013-07-30 00:06:00,
2013-07-29 17:12:00,93.0,37.0,27.25,SSW,202,9.0,9.0,14,0.00,,,0.00,Rainwise IP-100,2013-07-30 00:12:00,
2013-07-29 17:17:00,93.1,37.0,27.25,WSW,247,0.0,5.0,14,0.00,,,0.00,Rainwise IP-100,2013-07-30 00:17:00,
2013-07-29 17:22:00,92.9,37.0,27.25,WNW,292,0.0,6.0,14,0.00,,,0.00,Rainwise IP-100,2013-07-30 00:22:00,
2013-07-29 17:27:00,92.8,37.0,27.25,SSW,202,6.0,6.0,14,0.00,,,0.00,Rainwise IP-100,2013-07-30 00:27:00,
2013-07-29 17:32:00,93.0,37.0,27.25,SSW,202,0.0,4.0,14,0.00,,,0.00,Rainwise IP-100,2013-07-30 00:32:00,
2013-07-29 17:37:00,93.1,37.0,27.24,WSW,247,0.0,4.0,14,0.00,,,0.00,Rainwise IP-100,2013-07-30 00:37:00,
2013-07-29 17:42:00,93.1,37.0,27.25,SW,225,0.0,8.0,14,0.00,,,0.00,Rainwise IP-100,2013-07-30 00:42:00,
2013-07-29 17:47:00,93.0,37.0,27.25,SW,225,6.0,9.0,14,0.00,,,0.00,Rainwise IP-100,2013-07-30 00:47:00,
2013-07-29 17:52:00,92.7,37.0,27.25,SW,225,9.0,9.0,14,0.00,,,0.00,Rainwise IP-100,2013-07-30 00:52:00,
2013-07-29 17:57:00,92.5,37.0,27.24,SSW,202,0.0,2.0,14,0.00,,,0.00,Rainwise IP-100,2013-07-30 00:57:00,
2013-07-29 18:02:00,92.4,38.0,27.25,SW,225,0.0,5.0,15,0.00,,,0.00,Rainwise IP-100,2013-07-30 01:02:00,
2013-07-29 18:07:00,92.4,38.0,27.24,SSW,202,0.0,8.0,15,0.00,,,0.00,Rainwise IP-100,2013-07-30 01:07:00,
2013-07-29 18:12:00,92.1,38.0,27.24,SW,225,0.0,6.0,15,0.00,,,0.00,Rainwise IP-100,2013-07-30 01:12:00,
2013-07-29 18:17:00,91.8,38.0,27.25,SSW,202,0.0,0.0,15,0.00,,,0.00,Rainwise IP-100,2013-07-30 01:17:00,
2013-07-29 18:22:00,91.6,37.0,27.24,SSW,202,8.0,9.0,15,0.00,,,0.00,Rainwise IP-100,2013-07-30 01:22:00,
2013-07-29 18:28:00,91.3,39.0,27.25,SW,225,8.0,8.0,16,0.00,,,0.00,Rainwise IP-100,2013-07-30 01:28:00,
2013-07-29 18:33:00,91.1,39.0,27.24,SW,225,0.0,3.0,16,0.00,,,0.00,Rainwise IP-100,2013-07-30 01:33:00,
2013-07-29 18:38:00,91.0,39.0,27.25,SSW,202,9.0,9.0,16,0.00,,,0.00,Rainwise IP-100,2013-07-30 01:38:00,
2013-07-29 18:43:00,90.7,38.0,27.25,SSW,202,0.0,2.0,16,0.00,,,0.00,Rainwise IP-100,2013-07-30 01:43:00,
2013-07-29 18:48:00,90.5,40.0,27.25,SSW,202,0.0,6.0,17,0.00,,,0.00,Rainwise IP-100,2013-07-30 01:48:00,
2013-07-29 18:53:00,90.2,39.0,27.25,SSW,202,0.0,4.0,17,0.00,,,0.00,Rainwise IP-100,2013-07-30 01:53:00,
2013-07-29 18:58:00,89.9,41.0,27.25,SW,225,8.0,8.0,18,0.00,,,0.00,Rainwise IP-100,2013-07-30 01:58:00,
2013-07-29 19:03:00,89.6,40.0,27.25,SSW,202,9.0,9.0,18,0.00,,,0.00,Rainwise IP-100,2013-07-30 02:03:00,
2013-07-29 19:08:00,89.1,41.0,27.25,SW,225,8.0,8.0,19,0.00,,,0.00,Rainwise IP-100,2013-07-30 02:08:00,
2013-07-29 19:13:00,88.5,41.0,27.25,SW,225,0.0,2.0,19,0.00,,,0.00,Rainwise IP-100,2013-07-30 02:13:00,
2013-07-29 19:18:00,88.0,42.0,27.25,SSW,202,5.0,5.0,20,0.00,,,0.00,Rainwise IP-100,2013-07-30 02:18:00,
2013-07-29 19:23:00,87.7,42.0,27.25,WSW,247,6.0,0.0,20,0.00,,,0.00,Rainwise IP-100,2013-07-30 02:23:00,
2013-07-29 19:28:00,87.3,41.0,27.25,SSW,202,8.0,0.0,20,0.00,,,0.00,Rainwise IP-100,2013-07-30 02:28:00,
2013-07-29 19:33:00,87.0,42.0,27.26,SW,225,2.0,8.0,21,0.00,,,0.00,Rainwise IP-100,2013-07-30 02:33:00,
2013-07-29 19:38:00,86.7,42.0,27.26,SSW,202,3.0,3.0,21,0.00,,,0.00,Rainwise IP-100,2013-07-30 02:38:00,
2013-07-29 19:44:00,86.4,42.0,27.26,SSW,202,4.0,6.0,21,0.00,,,0.00,Rainwise IP-100,2013-07-30 02:44:00,
2013-07-29 19:49:00,86.1,43.0,27.26,SSW,202,3.0,5.0,22,0.00,,,0.00,Rainwise IP-100,2013-07-30 02:49:00,
2013-07-29 19:54:00,85.7,42.0,27.26,SSW,202,5.0,5.0,22,0.00,,,0.00,Rainwise IP-100,2013-07-30 02:54:00,
2013-07-29 19:59:00,85.2,42.0,27.26,SSW,202,2.0,5.0,22,0.00,,,0.00,Rainwise IP-100,2013-07-30 02:59:00,
2013-07-29 20:04:00,84.9,43.0,27.26,WSW,247,6.0,6.0,23,0.00,,,0.00,Rainwise IP-100,2013-07-30 03:04:00,
2013-07-29 20:09:00,84.8,43.0,27.26,WSW,247,3.0,7.0,23,0.00,,,0.00,Rainwise IP-100,2013-07-30 03:09:00,
2013-07-29 20:14:00,84.7,43.0,27.27,WSW,247,5.0,7.0,23,0.00,,,0.00,Rainwise IP-100,2013-07-30 03:14:00,
2013-07-29 20:19:00,84.6,43.0,27.27,SW,225,4.0,5.0,23,0.00,,,0.00,Rainwise IP-100,2013-07-30 03:19:00,
2013-07-29 20:24:00,84.5,43.0,27.27,South,180,4.0,5.0,23,0.00,,,0.00,Rainwise IP-100,2013-07-30 03:24:00,
2013-07-29 20:29:00,84.2,42.0,27.27,SSW,202,3.0,4.0,23,0.00,,,0.00,Rainwise IP-100,2013-07-30 03:29:00,
2013-07-29 20:34:00,83.8,42.0,27.27,SW,225,2.0,3.0,23,0.00,,,0.00,Rainwise IP-100,2013-07-30 03:34:00,
2013-07-29 20:39:00,83.4,43.0,27.27,SW,225,5.0,5.0,24,0.00,,,0.00,Rainwise IP-100,2013-07-30 03:39:00,
2013-07-29 20:44:00,83.1,42.0,27.28,WSW,247,2.0,5.0,24,0.00,,,0.00,Rainwise IP-100,2013-07-30 03:44:00,
2013-07-29 20:49:00,83.0,42.0,27.28,WNW,292,3.0,4.0,24,0.00,,,0.00,Rainwise IP-100,2013-07-30 03:49:00,
2013-07-29 20:54:00,83.0,42.0,27.28,WSW,247,3.0,6.0,24,0.00,,,0.00,Rainwise IP-100,2013-07-30 03:54:00,
2013-07-29 21:00:00,82.9,42.0,27.28,WSW,247,0.0,4.0,24,0.00,,,0.00,Rainwise IP-100,2013-07-30 04:00:00,
2013-07-29 21:01:00,82.8,42.0,27.29,WSW,247,4.0,4.0,24,0.00,,,0.00,Rainwise IP-100,2013-07-30 04:01:00,
2013-07-29 21:06:00,82.5,42.0,27.29,NNW,337,1.0,4.0,24,0.00,,,0.00,Rainwise IP-100,2013-07-30 04:06:00,
2013-07-29 21:12:00,82.1,41.0,27.29,NNW,337,3.0,3.0,24,0.00,,,0.00,Rainwise IP-100,2013-07-30 04:12:00,
2013-07-29 21:17:00,81.6,41.0,27.29,WSW,247,4.0,4.0,24,0.00,,,0.00,Rainwise IP-100,2013-07-30 04:17:00,
2013-07-29 21:22:00,81.6,41.0,27.30,WNW,292,4.0,5.0,24,0.00,,,0.00,Rainwise IP-100,2013-07-30 04:22:00,
2013-07-29 21:27:00,82.0,41.0,27.30,WNW,292,4.0,5.0,24,0.00,,,0.00,Rainwise IP-100,2013-07-30 04:27:00,
2013-07-29 21:32:00,82.2,42.0,27.30,West,270,2.0,4.0,24,0.00,,,0.00,Rainwise IP-100,2013-07-30 04:32:00,
2013-07-29 21:37:00,82.2,42.0,27.30,WSW,247,3.0,4.0,24,0.00,,,0.00,Rainwise IP-100,2013-07-30 04:37:00,
2013-07-29 21:42:00,82.2,42.0,27.30,West,270,5.0,5.0,24,0.00,,,0.00,Rainwise IP-100,2013-07-30 04:42:00,
2013-07-29 21:47:00,82.3,42.0,27.30,WNW,292,7.0,7.0,24,0.00,,,0.00,Rainwise IP-100,2013-07-30 04:47:00,
2013-07-29 21:52:00,82.1,41.0,27.30,SSW,202,4.0,6.0,24,0.00,,,0.00,Rainwise IP-100,2013-07-30 04:52:00,
2013-07-29 21:57:00,81.6,41.0,27.30,SW,225,1.0,3.0,24,0.00,,,0.00,Rainwise IP-100,2013-07-30 04:57:00,
2013-07-29 22:02:00,81.2,42.0,27.31,WSW,247,3.0,4.0,25,0.00,,,0.00,Rainwise IP-100,2013-07-30 05:02:00,
2013-07-29 22:07:00,81.1,42.0,27.31,WSW,247,2.0,5.0,25,0.00,,,0.00,Rainwise IP-100,2013-07-30 05:07:00,
2013-07-29 22:12:00,81.1,42.0,27.31,WSW,247,4.0,4.0,25,0.00,,,0.00,Rainwise IP-100,2013-07-30 05:12:00,
2013-07-29 22:17:00,81.2,42.0,27.31,West,270,3.0,6.0,25,0.00,,,0.00,Rainwise IP-100,2013-07-30 05:17:00,
2013-07-29 22:22:00,81.5,42.0,27.31,WSW,247,3.0,5.0,25,0.00,,,0.00,Rainwise IP-100,2013-07-30 05:22:00,
2013-07-29 22:28:00,81.4,42.0,27.31,WSW,247,3.0,4.0,25,0.00,,,0.00,Rainwise IP-100,2013-07-30 05:28:00,
2013-07-29 22:33:00,81.3,42.0,27.31,WSW,247,3.0,4.0,25,0.00,,,0.00,Rainwise IP-100,2013-07-30 05:33:00,
2013-07-29 22:38:00,81.4,42.0,27.31,West,270,3.0,4.0,25,0.00,,,0.00,Rainwise IP-100,2013-07-30 05:38:00,
2013-07-29 22:43:00,81.5,41.0,27.31,WSW,247,3.0,4.0,24,0.00,,,0.00,Rainwise IP-100,2013-07-30 05:43:00,
2013-07-29 22:48:00,81.2,41.0,27.31,NNE,22,2.0,4.0,24,0.00,,,0.00,Rainwise IP-100,2013-07-30 05:48:00,
2013-07-29 22:53:00,80.1,41.0,27.31,NNE,22,2.0,2.0,25,0.00,,,0.00,Rainwise IP-100,2013-07-30 05:53:00,
2013-07-29 22:58:00,78.6,42.0,27.31,NNE,22,1.0,2.0,27,0.00,,,0.00,Rainwise IP-100,2013-07-30 05:58:00,
2013-07-29 23:03:00,77.7,41.0,27.31,NNW,337,2.0,3.0,27,0.00,,,0.00,Rainwise IP-100,2013-07-30 06:03:00,
2013-07-29 23:08:00,77.5,42.0,27.31,NNW,337,1.0,3.0,28,0.00,,,0.00,Rainwise IP-100,2013-07-30 06:08:00,
2013-07-29 23:13:00,77.6,42.0,27.32,NNW,337,1.0,2.0,28,0.00,,,0.00,Rainwise IP-100,2013-07-30 06:13:00,
2013-07-29 23:18:00,77.5,42.0,27.31,NNW,337,0.0,1.0,28,0.00,,,0.00,Rainwise IP-100,2013-07-30 06:18:00,
2013-07-29 23:23:00,77.2,42.0,27.32,NNW,337,1.0,1.0,28,0.00,,,0.00,Rainwise IP-100,2013-07-30 06:23:00,
2013-07-29 23:28:00,77.0,41.0,27.32,NNW,337,0.0,1.0,28,0.00,,,0.00,Rainwise IP-100,2013-07-30 06:28:00,
2013-07-29 23:33:00,76.8,41.0,27.32,NNW,337,0.0,0.0,28,0.00,,,0.00,Rainwise IP-100,2013-07-30 06:33:00,
2013-07-29 23:38:00,76.8,41.0,27.32,NNW,337,0.0,1.0,28,0.00,,,0.00,Rainwise IP-100,2013-07-30 06:38:00,
2013-07-29 23:44:00,77.0,41.0,27.32,NNW,337,0.0,0.0,28,0.00,,,0.00,Rainwise IP-100,2013-07-30 06:44:00,
2013-07-29 23:49:00,76.9,41.0,27.32,NNW,337,0.0,0.0,28,0.00,,,0.00,Rainwise IP-100,2013-07-30 06:49:00,
2013-07-29 23:54:00,76.4,41.0,27.32,NNW,337,0.0,1.0,28,0.00,,,0.00,Rainwise IP-100,2013-07-30 06:54:00,
2013-07-29 23:59:00,75.9,41.0,27.32,NNW,337,0.0,1.0,29,0.00,,,0.00,Rainwise IP-100,2013-07-30 06:59:00,